Year,Month,Day,Hour,Minute,Value (Times are PST for temperature in C)
2008,02,24,00,00,3.50
2008,02,24,00,01,3.60
2008,02,24,00,02,3.60
2008,02,24,00,03,3.70
2008,02,24,00,04,3.80
2008,02,24,00,05,3.80
2008,02,24,00,06,3.80
2008,02,24,00,07,3.90
2008,02,24,00,08,4.00
2008,02,24,00,09,4.00
2008,02,24,00,10,4.10
2008,02,24,00,11,4.10
2008,02,24,00,12,4.20
2008,02,24,00,13,4.20
2008,02,24,00,14,4.30
2008,02,24,00,15,4.30
2008,02,24,00,16,4.30
2008,02,24,00,17,4.30
2008,02,24,00,18,4.30
2008,02,24,00,19,4.30
2008,02,24,00,20,4.30
2008,02,24,00,21,4.30
2008,02,24,00,22,4.30
2008,02,24,00,23,4.40
2008,02,24,00,24,4.40
2008,02,24,00,25,4.50
2008,02,24,00,26,4.60
2008,02,24,00,27,4.70
2008,02,24,00,28,4.70
2008,02,24,00,29,4.70
2008,02,24,00,30,4.80
2008,02,24,00,31,4.80
2008,02,24,00,32,4.80
2008,02,24,00,33,4.80
2008,02,24,00,34,4.90
2008,02,24,00,35,4.90
2008,02,24,00,36,4.90
2008,02,24,00,37,5.00
2008,02,24,00,38,5.00
2008,02,24,00,39,5.00
2008,02,24,00,40,5.10
2008,02,24,00,41,5.10
2008,02,24,00,42,5.10
2008,02,24,00,43,5.10
2008,02,24,00,44,5.10
2008,02,24,00,45,5.10
2008,02,24,00,46,5.10
2008,02,24,00,47,5.10
2008,02,24,00,48,5.10
2008,02,24,00,49,5.10
2008,02,24,00,50,5.10
2008,02,24,00,51,5.10
2008,02,24,00,52,5.10
2008,02,24,00,53,5.10
2008,02,24,00,54,5.10
2008,02,24,00,55,5.10
2008,02,24,00,56,5.10
2008,02,24,00,57,5.10
2008,02,24,00,58,5.10
2008,02,24,00,59,5.10
2008,02,24,01,00,5.10
2008,02,24,01,01,5.10
2008,02,24,01,02,5.10
2008,02,24,01,03,5.10
2008,02,24,01,04,5.10
2008,02,24,01,05,5.10
2008,02,24,01,06,5.00
2008,02,24,01,07,5.10
2008,02,24,01,08,5.00
2008,02,24,01,09,5.10
2008,02,24,01,10,5.10
2008,02,24,01,11,5.10
2008,02,24,01,12,5.10
2008,02,24,01,13,5.10
2008,02,24,01,14,5.10
2008,02,24,01,15,5.10
2008,02,24,01,16,5.10
2008,02,24,01,17,5.10
2008,02,24,01,18,5.10
2008,02,24,01,19,5.10
2008,02,24,01,20,5.10
2008,02,24,01,21,5.10
2008,02,24,01,22,5.10
2008,02,24,01,23,5.10
2008,02,24,01,24,5.10
2008,02,24,01,25,5.10
2008,02,24,01,26,5.10
2008,02,24,01,27,5.10
2008,02,24,01,28,5.10
2008,02,24,01,29,5.10
2008,02,24,01,30,5.10
2008,02,24,01,31,5.10
2008,02,24,01,32,5.10
2008,02,24,01,33,5.10
2008,02,24,01,34,5.10
2008,02,24,01,35,5.10
2008,02,24,01,36,5.10
2008,02,24,01,37,5.10
2008,02,24,01,38,5.10
2008,02,24,01,39,5.10
2008,02,24,01,40,5.10
2008,02,24,01,41,5.10
2008,02,24,01,42,5.10
2008,02,24,01,43,5.10
2008,02,24,01,44,5.10
2008,02,24,01,45,5.10
2008,02,24,01,46,5.10
2008,02,24,01,47,5.10
2008,02,24,01,48,5.10
2008,02,24,01,49,5.10
2008,02,24,01,50,5.10
2008,02,24,01,51,5.10
2008,02,24,01,52,5.10
2008,02,24,01,53,5.10
2008,02,24,01,54,5.10
2008,02,24,01,55,5.10
2008,02,24,01,56,5.10
2008,02,24,01,57,5.10
2008,02,24,01,58,5.10
2008,02,24,01,59,5.10
2008,02,24,02,00,5.10
2008,02,24,02,01,5.10
2008,02,24,02,02,5.10
2008,02,24,02,03,5.20
2008,02,24,02,04,5.20
2008,02,24,02,05,5.20
2008,02,24,02,06,5.20
2008,02,24,02,07,5.20
2008,02,24,02,08,5.20
2008,02,24,02,09,5.20
2008,02,24,02,10,5.20
2008,02,24,02,11,5.20
2008,02,24,02,12,5.20
2008,02,24,02,13,5.20
2008,02,24,02,14,5.20
2008,02,24,02,15,5.20
2008,02,24,02,16,5.20
2008,02,24,02,17,5.20
2008,02,24,02,18,5.20
2008,02,24,02,19,5.20
2008,02,24,02,20,5.20
2008,02,24,02,21,5.20
2008,02,24,02,22,5.20
2008,02,24,02,23,5.20
2008,02,24,02,24,5.20
2008,02,24,02,25,5.20
2008,02,24,02,26,5.20
2008,02,24,02,27,5.20
2008,02,24,02,28,5.20
2008,02,24,02,29,5.20
2008,02,24,02,30,5.20
2008,02,24,02,31,5.10
2008,02,24,02,32,5.10
2008,02,24,02,33,5.20
2008,02,24,02,34,5.10
2008,02,24,02,35,5.10
2008,02,24,02,36,5.10
2008,02,24,02,37,5.10
2008,02,24,02,38,5.10
2008,02,24,02,39,5.10
2008,02,24,02,40,5.10
2008,02,24,02,41,5.10
2008,02,24,02,42,5.10
2008,02,24,02,43,5.10
2008,02,24,02,44,5.10
2008,02,24,02,45,5.10
2008,02,24,02,46,5.10
2008,02,24,02,47,5.10
2008,02,24,02,48,5.10
2008,02,24,02,49,5.10
2008,02,24,02,50,5.10
2008,02,24,02,51,5.00
2008,02,24,02,52,5.00
2008,02,24,02,53,5.00
2008,02,24,02,54,5.00
2008,02,24,02,55,5.00
2008,02,24,02,56,5.00
2008,02,24,02,57,5.00
2008,02,24,02,58,5.00
2008,02,24,02,59,5.00
2008,02,24,03,00,5.00
2008,02,24,03,01,5.00
2008,02,24,03,02,5.00
2008,02,24,03,03,4.90
2008,02,24,03,04,4.90
2008,02,24,03,05,4.90
2008,02,24,03,06,4.90
2008,02,24,03,07,4.90
2008,02,24,03,08,4.90
2008,02,24,03,09,4.90
2008,02,24,03,10,4.90
2008,02,24,03,11,4.90
2008,02,24,03,12,4.90
2008,02,24,03,13,4.90
2008,02,24,03,14,4.90
2008,02,24,03,15,4.90
2008,02,24,03,16,4.90
2008,02,24,03,17,4.90
2008,02,24,03,18,4.90
2008,02,24,03,19,4.90
2008,02,24,03,20,4.90
2008,02,24,03,21,4.90
2008,02,24,03,22,4.90
2008,02,24,03,23,4.90
2008,02,24,03,24,4.80
2008,02,24,03,25,4.80
2008,02,24,03,26,4.80
2008,02,24,03,27,4.80
2008,02,24,03,28,4.80
2008,02,24,03,29,4.80
2008,02,24,03,30,4.80
2008,02,24,03,31,4.80
2008,02,24,03,32,4.70
2008,02,24,03,33,4.70
2008,02,24,03,34,4.70
2008,02,24,03,35,4.70
2008,02,24,03,36,4.70
2008,02,24,03,37,4.70
2008,02,24,03,38,4.70
2008,02,24,03,39,4.70
2008,02,24,03,40,4.70
2008,02,24,03,41,4.70
2008,02,24,03,42,4.70
2008,02,24,03,43,4.70
2008,02,24,03,44,4.70
2008,02,24,03,45,4.70
2008,02,24,03,46,4.70
2008,02,24,03,47,4.70
2008,02,24,03,48,4.70
2008,02,24,03,49,4.70
2008,02,24,03,50,4.70
2008,02,24,03,51,4.60
2008,02,24,03,52,4.60
2008,02,24,03,53,4.60
2008,02,24,03,54,4.60
2008,02,24,03,55,4.60
2008,02,24,03,56,4.60
2008,02,24,03,57,4.60
2008,02,24,03,58,4.60
2008,02,24,03,59,4.60
2008,02,24,04,00,4.60
2008,02,24,04,01,4.60
2008,02,24,04,02,4.60
2008,02,24,04,03,4.60
2008,02,24,04,04,4.60
2008,02,24,04,05,4.60
2008,02,24,04,06,4.60
2008,02,24,04,07,4.60
2008,02,24,04,08,4.60
2008,02,24,04,09,4.60
2008,02,24,04,10,4.60
2008,02,24,04,11,4.50
2008,02,24,04,12,4.50
2008,02,24,04,13,4.50
2008,02,24,04,14,4.50
2008,02,24,04,15,4.50
2008,02,24,04,16,4.50
2008,02,24,04,17,4.50
2008,02,24,04,18,4.50
2008,02,24,04,19,4.50
2008,02,24,04,20,4.40
2008,02,24,04,21,4.40
2008,02,24,04,22,4.40
2008,02,24,04,23,4.40
2008,02,24,04,24,4.40
2008,02,24,04,25,4.40
2008,02,24,04,26,4.40
2008,02,24,04,27,4.30
2008,02,24,04,28,4.30
2008,02,24,04,29,4.30
2008,02,24,04,30,4.30
2008,02,24,04,31,4.30
2008,02,24,04,32,4.30
2008,02,24,04,33,4.30
2008,02,24,04,34,4.30
2008,02,24,04,35,4.30
2008,02,24,04,36,4.30
2008,02,24,04,37,4.20
2008,02,24,04,38,4.20
2008,02,24,04,39,4.20
2008,02,24,04,40,4.20
2008,02,24,04,41,4.20
2008,02,24,04,42,4.20
2008,02,24,04,43,4.20
2008,02,24,04,44,4.20
2008,02,24,04,45,4.20
2008,02,24,04,46,4.20
2008,02,24,04,47,4.20
2008,02,24,04,48,4.20
2008,02,24,04,49,4.20
2008,02,24,04,50,4.20
2008,02,24,04,51,4.10
2008,02,24,04,52,4.10
2008,02,24,04,53,4.10
2008,02,24,04,54,4.10
2008,02,24,04,55,4.10
2008,02,24,04,56,4.10
2008,02,24,04,57,4.10
2008,02,24,04,58,4.10
2008,02,24,04,59,4.10
2008,02,24,05,00,4.10
2008,02,24,05,01,4.10
2008,02,24,05,02,4.10
2008,02,24,05,03,4.10
2008,02,24,05,04,4.10
2008,02,24,05,05,4.10
2008,02,24,05,06,4.10
2008,02,24,05,07,4.10
2008,02,24,05,08,4.10
2008,02,24,05,09,4.10
2008,02,24,05,10,4.10
2008,02,24,05,11,4.10
2008,02,24,05,12,4.10
2008,02,24,05,13,4.10
2008,02,24,05,14,4.10
2008,02,24,05,15,4.10
2008,02,24,05,16,4.10
2008,02,24,05,17,4.10
2008,02,24,05,18,4.20
2008,02,24,05,19,4.20
2008,02,24,05,20,4.10
2008,02,24,05,21,4.10
2008,02,24,05,22,4.10
2008,02,24,05,23,4.10
2008,02,24,05,24,4.10
2008,02,24,05,25,4.10
2008,02,24,05,26,4.00
2008,02,24,05,27,4.00
2008,02,24,05,28,4.00
2008,02,24,05,29,4.00
2008,02,24,05,30,4.00
2008,02,24,05,31,3.90
2008,02,24,05,32,3.90
2008,02,24,05,33,3.90
2008,02,24,05,34,3.90
2008,02,24,05,35,3.90
2008,02,24,05,36,3.90
2008,02,24,05,37,3.90
2008,02,24,05,38,3.90
2008,02,24,05,39,3.90
2008,02,24,05,40,3.90
2008,02,24,05,41,3.90
2008,02,24,05,42,3.90
2008,02,24,05,43,3.90
2008,02,24,05,44,3.90
2008,02,24,05,45,3.90
2008,02,24,05,46,3.90
2008,02,24,05,47,3.90
2008,02,24,05,48,3.90
2008,02,24,05,49,3.90
2008,02,24,05,50,3.90
2008,02,24,05,51,3.90
2008,02,24,05,52,3.90
2008,02,24,05,53,3.90
2008,02,24,05,54,3.90
2008,02,24,05,55,3.90
2008,02,24,05,56,3.90
2008,02,24,05,57,3.90
2008,02,24,05,58,3.90
2008,02,24,05,59,3.90
2008,02,24,06,00,3.90
2008,02,24,06,01,3.90
2008,02,24,06,02,3.90
2008,02,24,06,03,3.90
2008,02,24,06,04,3.90
2008,02,24,06,05,3.90
2008,02,24,06,06,3.90
2008,02,24,06,07,3.90
2008,02,24,06,08,3.90
2008,02,24,06,09,3.90
2008,02,24,06,10,3.90
2008,02,24,06,11,3.90
2008,02,24,06,12,3.90
2008,02,24,06,13,3.90
2008,02,24,06,14,3.90
2008,02,24,06,15,3.90
2008,02,24,06,16,3.90
2008,02,24,06,17,3.90
2008,02,24,06,18,3.90
2008,02,24,06,19,3.90
2008,02,24,06,20,3.90
2008,02,24,06,21,4.00
2008,02,24,06,22,4.00
2008,02,24,06,23,4.00
2008,02,24,06,24,4.10
2008,02,24,06,25,4.10
2008,02,24,06,26,4.10
2008,02,24,06,27,4.10
2008,02,24,06,28,4.10
2008,02,24,06,29,4.10
2008,02,24,06,30,4.10
2008,02,24,06,31,4.10
2008,02,24,06,32,4.10
2008,02,24,06,33,4.10
2008,02,24,06,34,4.10
2008,02,24,06,35,4.10
2008,02,24,06,36,4.10
2008,02,24,06,37,4.10
2008,02,24,06,38,4.10
2008,02,24,06,39,4.10
2008,02,24,06,40,4.10
2008,02,24,06,41,4.10
2008,02,24,06,42,4.10
2008,02,24,06,43,4.10
2008,02,24,06,44,4.10
2008,02,24,06,45,4.10
2008,02,24,06,46,4.10
2008,02,24,06,47,4.10
2008,02,24,06,48,4.00
2008,02,24,06,49,4.00
2008,02,24,06,50,4.00
2008,02,24,06,51,4.00
2008,02,24,06,52,4.00
2008,02,24,06,53,4.00
2008,02,24,06,54,3.90
2008,02,24,06,55,3.90
2008,02,24,06,56,3.90
2008,02,24,06,57,3.90
2008,02,24,06,58,3.90
2008,02,24,06,59,3.90
2008,02,24,07,00,3.90
2008,02,24,07,01,4.00
2008,02,24,07,02,4.00
2008,02,24,07,03,4.00
2008,02,24,07,04,4.00
2008,02,24,07,05,4.00
2008,02,24,07,06,4.00
2008,02,24,07,07,4.00
2008,02,24,07,08,4.10
2008,02,24,07,09,4.00
2008,02,24,07,10,4.00
2008,02,24,07,11,4.00
2008,02,24,07,12,4.00
2008,02,24,07,13,4.00
2008,02,24,07,14,4.00
2008,02,24,07,15,4.00
2008,02,24,07,16,4.00
2008,02,24,07,17,4.00
2008,02,24,07,18,3.90
2008,02,24,07,19,3.90
2008,02,24,07,20,3.90
2008,02,24,07,21,3.90
2008,02,24,07,22,3.90
2008,02,24,07,23,3.90
2008,02,24,07,24,3.80
2008,02,24,07,25,3.80
2008,02,24,07,26,3.80
2008,02,24,07,27,3.80
2008,02,24,07,28,3.80
2008,02,24,07,29,3.80
2008,02,24,07,30,3.80
2008,02,24,07,31,3.80
2008,02,24,07,32,3.80
2008,02,24,07,33,3.80
2008,02,24,07,34,3.80
2008,02,24,07,35,3.80
2008,02,24,07,36,3.80
2008,02,24,07,37,3.80
2008,02,24,07,38,3.80
2008,02,24,07,39,3.80
2008,02,24,07,40,3.80
2008,02,24,07,41,3.80
2008,02,24,07,42,3.80
2008,02,24,07,43,3.80
2008,02,24,07,44,3.80
2008,02,24,07,45,3.80
2008,02,24,07,46,3.80
2008,02,24,07,47,3.80
2008,02,24,07,48,3.80
2008,02,24,07,49,3.80
2008,02,24,07,50,3.80
2008,02,24,07,51,3.80
2008,02,24,07,52,3.80
2008,02,24,07,53,3.80
2008,02,24,07,54,3.80
2008,02,24,07,55,3.80
2008,02,24,07,56,3.80
2008,02,24,07,57,3.80
2008,02,24,07,58,3.80
2008,02,24,07,59,3.80
2008,02,24,08,00,3.80
2008,02,24,08,01,3.80
2008,02,24,08,02,3.80
2008,02,24,08,03,3.80
2008,02,24,08,04,3.80
2008,02,24,08,05,3.80
2008,02,24,08,06,3.80
2008,02,24,08,07,3.80
2008,02,24,08,08,3.80
2008,02,24,08,09,3.80
2008,02,24,08,10,3.80
2008,02,24,08,11,3.80
2008,02,24,08,12,3.80
2008,02,24,08,13,3.70
2008,02,24,08,14,3.70
2008,02,24,08,15,3.70
2008,02,24,08,16,3.70
2008,02,24,08,17,3.70
2008,02,24,08,18,3.70
2008,02,24,08,19,3.70
2008,02,24,08,20,3.70
2008,02,24,08,21,3.70
2008,02,24,08,22,3.70
2008,02,24,08,23,3.70
2008,02,24,08,24,3.60
2008,02,24,08,25,3.60
2008,02,24,08,26,3.60
2008,02,24,08,27,3.60
2008,02,24,08,28,3.70
2008,02,24,08,29,3.60
2008,02,24,08,30,3.60
2008,02,24,08,31,3.60
2008,02,24,08,32,3.60
2008,02,24,08,33,3.60
2008,02,24,08,34,3.60
2008,02,24,08,35,3.60
2008,02,24,08,36,3.60
2008,02,24,08,37,3.60
2008,02,24,08,38,3.60
2008,02,24,08,39,3.60
2008,02,24,08,40,3.60
2008,02,24,08,41,3.60
2008,02,24,08,42,3.60
2008,02,24,08,43,3.60
2008,02,24,08,44,3.60
2008,02,24,08,45,3.60
2008,02,24,08,46,3.70
2008,02,24,08,47,3.70
2008,02,24,08,48,3.70
2008,02,24,08,49,3.80
2008,02,24,08,50,3.80
2008,02,24,08,51,3.80
2008,02,24,08,52,3.80
2008,02,24,08,53,3.80
2008,02,24,08,54,3.90
2008,02,24,08,55,3.90
2008,02,24,08,56,3.90
2008,02,24,08,57,3.90
2008,02,24,08,58,3.90
2008,02,24,08,59,4.00
2008,02,24,09,00,4.00
2008,02,24,09,01,4.00
2008,02,24,09,02,4.10
2008,02,24,09,03,4.10
2008,02,24,09,04,4.10
2008,02,24,09,05,4.10
2008,02,24,09,06,4.20
2008,02,24,09,07,4.20
2008,02,24,09,08,4.20
2008,02,24,09,09,4.30
2008,02,24,09,10,4.30
2008,02,24,09,11,4.30
2008,02,24,09,12,4.40
2008,02,24,09,13,4.40
2008,02,24,09,14,4.40
2008,02,24,09,15,4.50
2008,02,24,09,16,4.50
2008,02,24,09,17,4.50
2008,02,24,09,18,4.60
2008,02,24,09,19,4.60
2008,02,24,09,20,4.60
2008,02,24,09,21,4.70
2008,02,24,09,22,4.70
2008,02,24,09,23,4.70
2008,02,24,09,24,4.70
2008,02,24,09,25,4.70
2008,02,24,09,26,4.70
2008,02,24,09,27,4.70
2008,02,24,09,28,4.80
2008,02,24,09,29,4.80
2008,02,24,09,30,4.80
2008,02,24,09,31,4.80
2008,02,24,09,32,4.80
2008,02,24,09,33,4.90
2008,02,24,09,34,4.90
2008,02,24,09,35,4.90
2008,02,24,09,36,4.90
2008,02,24,09,37,5.00
2008,02,24,09,38,5.00
2008,02,24,09,39,5.00
2008,02,24,09,40,5.10
2008,02,24,09,41,5.10
2008,02,24,09,42,5.10
2008,02,24,09,43,5.10
2008,02,24,09,44,5.10
2008,02,24,09,45,5.20
2008,02,24,09,46,5.20
2008,02,24,09,47,5.30
2008,02,24,09,48,5.30
2008,02,24,09,49,5.40
2008,02,24,09,50,5.50
2008,02,24,09,51,5.50
2008,02,24,09,52,5.60
2008,02,24,09,53,5.70
2008,02,24,09,54,5.70
2008,02,24,09,55,5.80
2008,02,24,09,56,5.80
2008,02,24,09,57,5.90
2008,02,24,09,58,5.90
2008,02,24,09,59,6.00
2008,02,24,10,00,6.10
2008,02,24,10,01,6.20
2008,02,24,10,02,6.20
2008,02,24,10,03,6.30
2008,02,24,10,04,6.30
2008,02,24,10,05,6.30
2008,02,24,10,06,6.40
2008,02,24,10,07,6.40
2008,02,24,10,08,6.40
2008,02,24,10,09,6.40
2008,02,24,10,10,6.50
2008,02,24,10,11,6.50
2008,02,24,10,12,6.60
2008,02,24,10,13,6.60
2008,02,24,10,14,6.60
2008,02,24,10,15,6.70
2008,02,24,10,16,6.70
2008,02,24,10,17,6.80
2008,02,24,10,18,6.80
2008,02,24,10,19,6.80
2008,02,24,10,20,6.80
2008,02,24,10,21,6.80
2008,02,24,10,22,6.90
2008,02,24,10,23,6.90
2008,02,24,10,24,6.90
2008,02,24,10,25,6.90
2008,02,24,10,26,6.90
2008,02,24,10,27,6.90
2008,02,24,10,28,6.90
2008,02,24,10,29,6.90
2008,02,24,10,30,6.90
2008,02,24,10,31,6.90
2008,02,24,10,32,6.90
2008,02,24,10,33,6.90
2008,02,24,10,34,6.90
2008,02,24,10,35,6.90
2008,02,24,10,36,6.90
2008,02,24,10,37,6.90
2008,02,24,10,38,6.90
2008,02,24,10,39,6.90
2008,02,24,10,40,6.90
2008,02,24,10,41,6.80
2008,02,24,10,42,6.80
2008,02,24,10,43,6.80
2008,02,24,10,44,6.80
2008,02,24,10,45,6.80
2008,02,24,10,46,6.80
2008,02,24,10,47,6.90
2008,02,24,10,48,6.90
2008,02,24,10,49,6.90
2008,02,24,10,50,7.00
2008,02,24,10,51,7.00
2008,02,24,10,52,7.10
2008,02,24,10,53,7.10
2008,02,24,10,54,7.20
2008,02,24,10,55,7.20
2008,02,24,10,56,7.30
2008,02,24,10,57,7.30
2008,02,24,10,58,7.30
2008,02,24,10,59,7.30
2008,02,24,11,00,7.40
2008,02,24,11,01,7.40
2008,02,24,11,02,7.40
2008,02,24,11,03,7.50
2008,02,24,11,04,7.60
2008,02,24,11,05,7.60
2008,02,24,11,06,7.70
2008,02,24,11,07,7.80
2008,02,24,11,08,7.80
2008,02,24,11,09,7.80
2008,02,24,11,10,7.80
2008,02,24,11,11,7.80
2008,02,24,11,12,7.80
2008,02,24,11,13,7.80
2008,02,24,11,14,7.80
2008,02,24,11,15,7.80
2008,02,24,11,16,7.80
2008,02,24,11,17,7.80
2008,02,24,11,18,7.80
2008,02,24,11,19,7.80
2008,02,24,11,20,7.80
2008,02,24,11,21,7.80
2008,02,24,11,22,7.80
2008,02,24,11,23,7.80
2008,02,24,11,24,7.80
2008,02,24,11,25,7.80
2008,02,24,11,26,7.90
2008,02,24,11,27,7.80
2008,02,24,11,28,7.80
2008,02,24,11,29,7.80
2008,02,24,11,30,7.80
2008,02,24,11,31,7.80
2008,02,24,11,32,7.80
2008,02,24,11,33,7.80
2008,02,24,11,34,7.90
2008,02,24,11,35,7.90
2008,02,24,11,36,7.90
2008,02,24,11,37,8.00
2008,02,24,11,38,8.10
2008,02,24,11,39,8.10
2008,02,24,11,40,8.10
2008,02,24,11,41,8.20
2008,02,24,11,42,8.20
2008,02,24,11,43,8.30
2008,02,24,11,44,8.30
2008,02,24,11,45,8.30
2008,02,24,11,46,8.30
2008,02,24,11,47,8.30
2008,02,24,11,48,8.30
2008,02,24,11,49,8.30
2008,02,24,11,50,8.30
2008,02,24,11,51,8.30
2008,02,24,11,52,8.20
2008,02,24,11,53,8.20
2008,02,24,11,54,8.10
2008,02,24,11,55,8.10
2008,02,24,11,56,8.10
2008,02,24,11,57,8.10
2008,02,24,11,58,8.20
2008,02,24,11,59,8.20
2008,02,24,12,00,8.20
2008,02,24,12,01,8.20
2008,02,24,12,02,8.20
2008,02,24,12,03,8.20
2008,02,24,12,04,8.20
2008,02,24,12,05,8.20
2008,02,24,12,06,8.20
2008,02,24,12,07,8.30
2008,02,24,12,08,8.30
2008,02,24,12,09,8.30
2008,02,24,12,10,8.40
2008,02,24,12,11,8.40
2008,02,24,12,12,8.50
2008,02,24,12,13,8.50
2008,02,24,12,14,8.60
2008,02,24,12,15,8.60
2008,02,24,12,16,8.60
2008,02,24,12,17,8.60
2008,02,24,12,18,8.60
2008,02,24,12,19,8.60
2008,02,24,12,20,8.60
2008,02,24,12,21,8.60
2008,02,24,12,22,8.60
2008,02,24,12,23,8.70
2008,02,24,12,24,8.70
2008,02,24,12,25,8.80
2008,02,24,12,26,8.80
2008,02,24,12,27,8.90
2008,02,24,12,28,8.90
2008,02,24,12,29,8.90
2008,02,24,12,30,8.90
2008,02,24,12,31,8.90
2008,02,24,12,32,8.90
2008,02,24,12,33,8.90
2008,02,24,12,34,8.90
2008,02,24,12,35,8.90
2008,02,24,12,36,8.90
2008,02,24,12,37,8.90
2008,02,24,12,38,8.90
2008,02,24,12,39,8.90
2008,02,24,12,40,9.00
2008,02,24,12,41,9.00
2008,02,24,12,42,9.10
2008,02,24,12,43,9.10
2008,02,24,12,44,9.20
2008,02,24,12,45,9.20
2008,02,24,12,46,9.30
2008,02,24,12,47,9.30
2008,02,24,12,48,9.30
2008,02,24,12,49,9.30
2008,02,24,12,50,9.40
2008,02,24,12,51,9.40
2008,02,24,12,52,9.40
2008,02,24,12,53,9.40
2008,02,24,12,54,9.40
2008,02,24,12,55,9.50
2008,02,24,12,56,9.50
2008,02,24,12,57,9.60
2008,02,24,12,58,9.60
2008,02,24,12,59,9.70
2008,02,24,13,00,9.70
2008,02,24,13,01,9.70
2008,02,24,13,02,9.80
2008,02,24,13,03,9.90
2008,02,24,13,04,9.90
2008,02,24,13,05,10.00
2008,02,24,13,06,10.10
2008,02,24,13,07,10.10
2008,02,24,13,08,10.20
2008,02,24,13,09,10.30
2008,02,24,13,10,10.30
2008,02,24,13,11,10.30
2008,02,24,13,12,10.30
2008,02,24,13,13,10.30
2008,02,24,13,14,10.40
2008,02,24,13,15,10.40
2008,02,24,13,16,10.50
2008,02,24,13,17,10.50
2008,02,24,13,18,10.60
2008,02,24,13,19,10.60
2008,02,24,13,20,10.60
2008,02,24,13,21,10.60
2008,02,24,13,22,10.70
2008,02,24,13,23,10.70
2008,02,24,13,24,10.70
2008,02,24,13,25,10.70
2008,02,24,13,26,10.80
2008,02,24,13,27,10.80
2008,02,24,13,28,10.70
2008,02,24,13,29,10.70
2008,02,24,13,30,10.70
2008,02,24,13,31,10.70
2008,02,24,13,32,10.70
2008,02,24,13,33,10.70
2008,02,24,13,34,10.70
2008,02,24,13,35,10.70
2008,02,24,13,36,10.70
2008,02,24,13,37,10.80
2008,02,24,13,38,10.90
2008,02,24,13,39,10.90
2008,02,24,13,40,11.10
2008,02,24,13,41,11.10
2008,02,24,13,42,11.20
2008,02,24,13,43,11.20
2008,02,24,13,44,11.20
2008,02,24,13,45,11.20
2008,02,24,13,46,11.20
2008,02,24,13,47,11.20
2008,02,24,13,48,11.30
2008,02,24,13,49,11.30
2008,02,24,13,50,11.30
2008,02,24,13,51,11.40
2008,02,24,13,52,11.40
2008,02,24,13,53,11.40
2008,02,24,13,54,11.40
2008,02,24,13,55,11.40
2008,02,24,13,56,11.40
2008,02,24,13,57,11.40
2008,02,24,13,58,11.30
2008,02,24,13,59,11.30
2008,02,24,14,00,11.30
2008,02,24,14,01,11.30
2008,02,24,14,02,11.20
2008,02,24,14,03,11.20
2008,02,24,14,04,11.10
2008,02,24,14,05,11.10
2008,02,24,14,06,11.10
2008,02,24,14,07,11.10
2008,02,24,14,08,11.10
2008,02,24,14,09,11.10
2008,02,24,14,10,11.10
2008,02,24,14,11,11.00
2008,02,24,14,12,11.00
2008,02,24,14,13,11.00
2008,02,24,14,14,11.00
2008,02,24,14,15,11.00
2008,02,24,14,16,11.00
2008,02,24,14,17,11.10
2008,02,24,14,18,11.10
2008,02,24,14,19,11.20
2008,02,24,14,20,11.20
2008,02,24,14,21,11.30
2008,02,24,14,22,11.40
2008,02,24,14,23,11.40
2008,02,24,14,24,11.30
2008,02,24,14,25,11.30
2008,02,24,14,26,11.20
2008,02,24,14,27,11.20
2008,02,24,14,28,11.20
2008,02,24,14,29,11.30
2008,02,24,14,30,11.30
2008,02,24,14,31,11.30
2008,02,24,14,32,11.30
2008,02,24,14,33,11.30
2008,02,24,14,34,11.20
2008,02,24,14,35,11.20
2008,02,24,14,36,11.20
2008,02,24,14,37,11.20
2008,02,24,14,38,11.20
2008,02,24,14,39,11.20
2008,02,24,14,40,11.20
2008,02,24,14,41,11.10
2008,02,24,14,42,11.10
2008,02,24,14,43,11.10
2008,02,24,14,44,11.10
2008,02,24,14,45,11.10
2008,02,24,14,46,11.10
2008,02,24,14,47,11.20
2008,02,24,14,48,11.20
2008,02,24,14,49,11.20
2008,02,24,14,50,11.30
2008,02,24,14,51,11.30
2008,02,24,14,52,11.30
2008,02,24,14,53,11.40
2008,02,24,14,54,11.40
2008,02,24,14,55,11.40
2008,02,24,14,56,11.40
2008,02,24,14,57,11.40
2008,02,24,14,58,11.40
2008,02,24,14,59,11.40
2008,02,24,15,00,11.50
2008,02,24,15,01,11.50
2008,02,24,15,02,11.50
2008,02,24,15,03,11.50
2008,02,24,15,04,11.50
2008,02,24,15,05,11.50
2008,02,24,15,06,11.50
2008,02,24,15,07,11.40
2008,02,24,15,08,11.30
2008,02,24,15,09,11.20
2008,02,24,15,10,11.20
2008,02,24,15,11,11.20
2008,02,24,15,12,11.20
2008,02,24,15,13,11.20
2008,02,24,15,14,11.20
2008,02,24,15,15,11.20
2008,02,24,15,16,11.10
2008,02,24,15,17,11.10
2008,02,24,15,18,11.10
2008,02,24,15,19,11.20
2008,02,24,15,20,11.20
2008,02,24,15,21,11.10
2008,02,24,15,22,11.10
2008,02,24,15,23,11.00
2008,02,24,15,24,10.90
2008,02,24,15,25,10.90
2008,02,24,15,26,10.90
2008,02,24,15,27,10.90
2008,02,24,15,28,10.90
2008,02,24,15,29,10.90
2008,02,24,15,30,10.90
2008,02,24,15,31,10.90
2008,02,24,15,32,11.00
2008,02,24,15,33,11.00
2008,02,24,15,34,11.10
2008,02,24,15,35,11.10
2008,02,24,15,36,11.20
2008,02,24,15,37,11.20
2008,02,24,15,38,11.30
2008,02,24,15,39,11.40
2008,02,24,15,40,11.40
2008,02,24,15,41,11.50
2008,02,24,15,42,11.50
2008,02,24,15,43,11.50
2008,02,24,15,44,11.50
2008,02,24,15,45,11.50
2008,02,24,15,46,11.60
2008,02,24,15,47,11.50
2008,02,24,15,48,11.50
2008,02,24,15,49,11.50
2008,02,24,15,50,11.50
2008,02,24,15,51,11.50
2008,02,24,15,52,11.40
2008,02,24,15,53,11.30
2008,02,24,15,54,11.30
2008,02,24,15,55,11.30
2008,02,24,15,56,11.30
2008,02,24,15,57,11.30
2008,02,24,15,58,11.30
2008,02,24,15,59,11.30
2008,02,24,16,00,11.40
2008,02,24,16,01,11.40
2008,02,24,16,02,11.40
2008,02,24,16,03,11.50
2008,02,24,16,04,11.50
2008,02,24,16,05,11.60
2008,02,24,16,06,11.60
2008,02,24,16,07,11.70
2008,02,24,16,08,11.80
2008,02,24,16,09,11.80
2008,02,24,16,10,11.90
2008,02,24,16,11,12.00
2008,02,24,16,12,12.00
2008,02,24,16,13,12.10
2008,02,24,16,14,12.10
2008,02,24,16,15,12.20
2008,02,24,16,16,12.20
2008,02,24,16,17,12.30
2008,02,24,16,18,12.30
2008,02,24,16,19,12.20
2008,02,24,16,20,12.20
2008,02,24,16,21,12.20
2008,02,24,16,22,12.20
2008,02,24,16,23,12.20
2008,02,24,16,24,12.20
2008,02,24,16,25,12.20
2008,02,24,16,26,12.20
2008,02,24,16,27,12.20
2008,02,24,16,28,12.10
2008,02,24,16,29,12.10
2008,02,24,16,30,12.00
2008,02,24,16,31,12.00
2008,02,24,16,32,12.00
2008,02,24,16,33,11.90
2008,02,24,16,34,11.90
2008,02,24,16,35,11.80
2008,02,24,16,36,11.80
2008,02,24,16,37,11.70
2008,02,24,16,38,11.70
2008,02,24,16,39,11.60
2008,02,24,16,40,11.50
2008,02,24,16,41,11.30
2008,02,24,16,42,11.20
2008,02,24,16,43,11.10
2008,02,24,16,44,10.90
2008,02,24,16,45,10.80
2008,02,24,16,46,10.70
2008,02,24,16,47,10.60
2008,02,24,16,48,10.40
2008,02,24,16,49,10.30
2008,02,24,16,50,10.20
2008,02,24,16,51,10.10
2008,02,24,16,52,9.90
2008,02,24,16,53,9.80
2008,02,24,16,54,9.70
2008,02,24,16,55,9.60
2008,02,24,16,56,9.50
2008,02,24,16,57,9.50
2008,02,24,16,58,9.40
2008,02,24,16,59,9.30
2008,02,24,17,00,9.20
2008,02,24,17,01,9.10
2008,02,24,17,02,9.10
2008,02,24,17,03,9.00
2008,02,24,17,04,8.90
2008,02,24,17,05,8.80
2008,02,24,17,06,8.80
2008,02,24,17,07,8.70
2008,02,24,17,08,8.60
2008,02,24,17,09,8.50
2008,02,24,17,10,8.50
2008,02,24,17,11,8.40
2008,02,24,17,12,8.30
2008,02,24,17,13,8.20
2008,02,24,17,14,8.20
2008,02,24,17,15,8.10
2008,02,24,17,16,8.10
2008,02,24,17,17,8.00
2008,02,24,17,18,7.90
2008,02,24,17,19,7.90
2008,02,24,17,20,7.80
2008,02,24,17,21,7.80
2008,02,24,17,22,7.70
2008,02,24,17,23,7.70
2008,02,24,17,24,7.60
2008,02,24,17,25,7.60
2008,02,24,17,26,7.50
2008,02,24,17,27,7.40
2008,02,24,17,28,7.30
2008,02,24,17,29,7.30
2008,02,24,17,30,7.20
2008,02,24,17,31,7.20
2008,02,24,17,32,7.20
2008,02,24,17,33,7.20
2008,02,24,17,34,7.10
2008,02,24,17,35,7.10
2008,02,24,17,36,7.10
2008,02,24,17,37,7.10
2008,02,24,17,38,7.10
2008,02,24,17,39,7.10
2008,02,24,17,40,7.10
2008,02,24,17,41,7.10
2008,02,24,17,42,7.10
2008,02,24,17,43,7.10
2008,02,24,17,44,7.10
2008,02,24,17,45,7.10
2008,02,24,17,46,7.10
2008,02,24,17,47,7.10
2008,02,24,17,48,7.10
2008,02,24,17,49,7.10
2008,02,24,17,50,7.10
2008,02,24,17,51,7.10
2008,02,24,17,52,7.10
2008,02,24,17,53,7.20
2008,02,24,17,54,7.20
2008,02,24,17,55,7.20
2008,02,24,17,56,7.20